DateTimeUTC,F1_A11,F1_S11,BsB_S11,BsG_S11,BsR_S11,BbsB_S11,BbsG_S11,BbsR_S11,BaB_A11,BaG_A11,BaR_A11,Tu_S11,T_S11,Uu_S11,U_S11,P_S11,T1_A11
2021-07-18T21:00:00Z,00000200,20000000,,,,,,,0000.10,0000.04,-000.33,18.8,25.3,13.4,09.0,0673.4,31.1
2021-07-18T21:01:00Z,00000200,20000000,,,,,,,0000.11,0000.09,0000.40,18.8,25.3,13.4,09.0,0673.4,31.1
2021-07-18T21:02:00Z,00000200,20000000,,,,,,,0000.13,0000.16,-000.29,18.8,25.3,13.4,09.0,0673.4,31.1
2021-07-18T21:03:00Z,00000200,60000000,,,,,,,0001.66,0001.37,0001.50,18.8,25.3,13.4,09.0,0673.4,31.1
2021-07-18T21:04:00Z,00000200,40000000,0014.48,0010.79,0006.91,0002.26,0001.03,0000.79,0002.57,0002.60,0001.96,18.9,25.1,13.7,09.3,0674.4,31.1
2021-07-18T21:05:00Z,00000200,00000000,0014.59,0010.27,0006.63,0002.03,0001.40,0001.20,0002.44,0002.15,0001.89,18.9,25.1,13.9,09.5,0674.4,31.1
2021-07-18T21:06:00Z,00000200,00000000,0014.39,0010.09,0007.05,0001.78,0001.03,0001.32,0002.56,0002.40,0001.87,18.9,25.1,13.9,09.5,0674.5,31.1
2021-07-18T21:07:00Z,00000200,00000000,0015.13,0010.41,0006.69,0001.57,0001.28,0000.90,0002.90,0002.53,0001.81,18.9,25.0,14.0,09.6,0674.5,31.1
2021-07-18T21:08:00Z,00000200,00000000,0015.59,0011.14,0006.74,0001.67,0001.25,0000.75,0002.74,0002.40,0001.63,18.9,25.1,13.9,09.6,0674.5,31.1
2021-07-18T21:09:00Z,00000200,00000000,0015.96,0011.49,0006.84,0001.35,0001.14,0001.20,0002.65,0002.64,0002.47,18.9,25.0,14.0,09.6,0674.5,31.1
2021-07-18T21:10:00Z,00000200,00000000,0014.92,0010.28,0007.03,0002.41,0000.89,0001.37,0002.48,0002.49,0001.88,18.9,25.0,13.9,09.6,0674.5,31.1
2021-07-18T21:11:00Z,00000200,00000000,0014.15,0011.22,0006.88,0002.34,0001.06,0001.27,0002.86,0002.42,0001.62,18.9,25.0,14.0,09.6,0674.5,31.1
2021-07-18T21:12:00Z,00000200,00000000,0015.43,0010.88,0006.97,0001.98,0001.25,0001.07,0002.53,0002.46,0001.70,18.9,25.0,13.9,09.6,0674.5,31.1
2021-07-18T21:13:00Z,00000200,00000000,0014.70,0011.11,0007.04,0001.23,0001.08,0001.20,0002.60,0002.15,0002.13,18.9,25.0,13.9,09.5,0674.5,31.1
2021-07-18T21:14:00Z,00000200,00000000,0014.81,0010.81,0006.95,0001.43,0001.29,0000.98,0002.58,0002.59,0001.75,18.9,25.0,13.9,09.6,0674.5,31.1
2021-07-18T21:15:00Z,00000200,00000000,0014.27,0010.49,0006.38,0002.06,0000.97,0000.97,0002.67,0002.39,0001.73,18.9,25.0,14.0,09.6,0674.5,31.1
2021-07-18T21:16:00Z,00000200,00000000,0014.09,0009.60,0005.91,0001.49,0001.05,0000.55,0002.58,0002.35,0001.98,18.9,25.0,14.0,09.6,0674.5,31.1
2021-07-18T21:17:00Z,00000200,00000000,0014.35,0010.10,0006.18,0002.61,0001.21,0000.80,0002.45,0002.24,0001.57,18.9,25.0,13.9,09.6,0674.5,31.1
2021-07-18T21:18:00Z,00000200,00000000,0013.63,0008.54,0005.53,0001.33,0000.93,0001.06,0002.38,0002.20,0001.73,18.9,25.0,14.0,09.6,0674.6,31.1
2021-07-18T21:19:00Z,00000200,00000000,0013.63,0008.62,0005.24,0001.88,0000.97,0000.82,0002.56,0002.09,0001.85,18.9,25.0,14.1,09.7,0674.6,31.1
2021-07-18T21:20:00Z,00000200,00000000,0011.56,0008.67,0005.35,0001.53,0001.09,0000.84,0001.78,0001.84,0001.54,18.9,25.0,14.0,09.6,0674.5,31.1
2021-07-18T21:21:00Z,00000200,00000000,0012.89,0009.39,0005.37,0002.08,0000.90,0000.98,0002.56,0002.54,0001.69,18.9,25.0,14.0,09.6,0674.5,31.1
2021-07-18T21:22:00Z,00000200,00000000,0013.20,0008.95,0005.14,0001.39,0000.99,0001.34,0002.60,0001.78,0001.44,18.9,25.0,14.0,09.6,0674.6,31.1
2021-07-18T21:23:00Z,00000200,00000000,0012.94,0009.03,0005.36,0001.99,0001.32,0000.81,0002.21,0002.30,0001.58,18.9,25.0,14.1,09.7,0674.6,31.1
2021-07-18T21:24:00Z,00000200,00000000,0012.92,0008.66,0005.26,0002.19,0000.86,0000.48,0002.35,0001.99,0001.53,18.9,25.0,14.1,09.7,0674.6,31.1
2021-07-18T21:25:00Z,00000200,00000000,0013.19,0009.24,0005.27,0001.92,0000.99,0000.78,0002.27,0002.35,0001.83,18.9,25.0,14.1,09.7,0674.6,31.1
2021-07-18T21:26:00Z,00000200,00000000,0014.65,0009.58,0005.91,0001.72,0000.89,0001.18,0002.52,0001.99,0001.72,18.9,25.0,14.1,09.7,0674.6,31.0
2021-07-18T21:27:00Z,00000200,00000000,0014.04,0009.59,0006.01,0001.78,0001.03,0000.94,0002.44,0002.54,0002.02,18.9,25.0,14.1,09.7,0674.6,31.1
2021-07-18T21:28:00Z,00000200,00000000,0014.13,0009.18,0005.58,0002.08,0001.25,0001.12,0002.37,0002.32,0001.60,18.9,25.0,14.0,09.7,0674.6,31.1
2021-07-18T21:29:00Z,00000200,00000000,0013.30,0009.56,0005.61,0001.46,0000.97,0000.99,0002.43,0001.98,0001.56,18.9,25.0,14.1,09.7,0674.6,31.1
2021-07-18T21:30:00Z,00000200,00000000,0013.75,0009.48,0005.94,0001.23,0000.88,0000.89,0002.68,0002.14,0001.88,18.9,25.0,14.1,09.7,0674.6,31.1
2021-07-18T21:31:00Z,00000200,00000000,0014.16,0009.60,0005.50,0000.89,0001.01,0000.72,0002.37,0002.69,0001.83,18.9,25.0,14.1,09.7,0674.6,31.1
2021-07-18T21:32:00Z,00000200,00000000,0013.04,0009.69,0005.54,0001.07,0001.22,0001.33,0002.39,0001.75,0001.57,18.9,25.0,14.1,09.7,0674.6,31.1
2021-07-18T21:33:00Z,00000200,00000000,0014.10,0009.32,0005.42,0002.05,0000.79,0000.96,0002.55,0002.48,0001.59,18.9,25.0,14.2,09.8,0674.6,31.1
2021-07-18T21:34:00Z,00000200,00000000,0013.48,0009.65,0005.39,0001.69,0000.76,0000.71,0002.43,0002.31,0001.71,18.9,25.0,14.1,09.7,0674.6,31.1
2021-07-18T21:35:00Z,00000200,00010000,0013.38,0008.55,0005.13,0001.73,0001.05,0001.02,0002.72,0002.18,0001.90,18.9,25.0,14.1,09.7,0674.6,31.1
2021-07-18T21:36:00Z,00000200,00000000,0012.91,0008.18,0005.04,0001.56,0000.86,0000.95,0002.02,0002.30,0001.48,18.9,25.0,14.2,09.8,0674.6,31.1
2021-07-18T21:37:00Z,00000200,00000000,0013.89,0009.04,0005.40,0001.31,0000.82,0000.86,0002.69,0002.17,0001.70,18.9,25.0,14.2,09.8,0674.6,31.1
2021-07-18T21:38:00Z,00000200,00000000,0013.03,0008.92,0005.08,0001.84,0000.84,0000.89,0002.27,0002.14,0001.75,18.9,25.0,14.1,09.7,0674.6,31.1
2021-07-18T21:39:00Z,00000200,00000000,0014.58,0009.65,0005.57,0001.58,0000.86,0000.94,0002.70,0002.32,0001.57,18.9,25.0,14.2,09.8,0674.6,31.1
2021-07-18T21:40:00Z,00000200,00000000,0014.17,0009.43,0005.83,0001.89,0000.69,0001.06,0002.33,0001.99,0001.71,18.9,25.0,14.1,09.7,0674.6,31.1
2021-07-18T21:41:00Z,00000200,00000000,0015.07,0010.00,0005.98,0001.80,0000.85,0000.95,0002.72,0002.62,0001.71,18.9,25.0,14.1,09.7,0674.6,31.1
2021-07-18T21:42:00Z,00000200,00000000,0014.77,0010.40,0006.10,0001.42,0001.14,0000.92,0002.73,0002.41,0002.25,18.9,25.0,14.2,09.8,0674.6,31.1
2021-07-18T21:43:00Z,00000200,00000000,0013.82,0009.69,0006.14,0001.13,0000.91,0001.15,0002.45,0002.70,0001.89,18.9,25.0,14.2,09.8,0674.6,31.1
2021-07-18T21:44:00Z,00000200,00000000,0013.91,0009.69,0005.63,0001.85,0000.65,0000.86,0002.73,0002.51,0001.71,18.9,25.0,14.2,09.8,0674.6,31.1
2021-07-18T21:45:00Z,00000200,00000000,0014.00,0009.87,0005.64,0001.59,0000.85,0001.00,0002.72,0002.35,0001.94,18.9,25.0,14.1,09.7,0674.7,31.1
2021-07-18T21:46:00Z,00000200,00000000,0013.60,0009.44,0005.57,0002.01,0000.82,0000.79,0002.52,0002.23,0001.51,18.9,25.0,14.2,09.8,0674.6,31.1
2021-07-18T21:47:00Z,00000200,00000000,0013.63,0009.80,0005.99,0001.32,0001.03,0001.08,0002.87,0002.38,0001.90,18.9,25.0,14.3,09.8,0674.7,31.1
2021-07-18T21:48:00Z,00000200,00000000,0014.21,0009.45,0005.89,0001.51,0001.17,0001.10,0002.79,0002.44,0001.74,18.9,25.0,14.2,09.8,0674.7,31.1
2021-07-18T21:49:00Z,00000200,00000000,0015.48,0009.56,0005.57,0001.40,0001.09,0001.03,0002.26,0002.23,0002.11,18.9,25.0,14.2,09.8,0674.7,31.1
2021-07-18T21:50:00Z,00000200,00000000,0013.66,0010.17,0006.12,0002.22,0000.84,0001.03,0002.53,0002.24,0001.18,18.9,25.0,14.2,09.7,0674.7,31.1
2021-07-18T21:51:00Z,00000200,00000000,0014.93,0009.76,0005.92,0001.24,0001.08,0000.78,0002.89,0002.70,0002.08,18.9,25.0,14.2,09.8,0674.7,31.1
2021-07-18T21:52:00Z,00000200,00000000,0014.04,0009.47,0006.12,0002.19,0000.92,0001.18,0002.69,0002.69,0001.92,18.9,25.0,14.2,09.8,0674.7,31.1
2021-07-18T21:53:00Z,00000200,00000000,0015.27,0010.01,0006.23,0001.20,0001.15,0000.87,0002.73,0002.14,0001.90,18.9,25.0,14.2,09.8,0674.7,31.1
2021-07-18T21:54:00Z,00000200,00000000,0015.60,0010.50,0006.07,0002.09,0001.19,0000.82,0002.67,0002.65,0001.87,18.9,25.0,14.2,09.8,0674.8,31.1
2021-07-18T21:55:00Z,00000200,00000000,0015.44,0009.87,0006.52,0001.56,0001.12,0000.93,0002.87,0002.30,0002.03,18.9,25.0,14.2,09.8,0674.7,31.1
2021-07-18T21:56:00Z,00000200,00000000,0015.46,0010.36,0006.45,0001.61,0001.20,0001.09,0002.68,0002.66,0001.67,18.9,25.0,14.3,09.8,0674.7,31.1
2021-07-18T21:57:00Z,00000200,40000000,,,,,,,0000.89,0000.45,0000.85,19.0,25.1,14.2,09.8,0674.7,31.1
2021-07-18T21:58:00Z,00000200,60000000,,,,,,,-000.26,0000.10,-000.08,18.8,25.2,14.3,09.6,0673.7,31.1
2021-07-18T21:59:00Z,00000200,20000000,,,,,,,-000.06,0000.01,-000.44,18.8,25.3,14.3,09.6,0673.7,31.1
